This is the latest recevied weather packets stored in our database for station/object KE5KUL-13. If no packets are shown the sender has not sent any weather packets the latest 1 day(s).
| Time | Temp. | Humidity | Pressure | Rain* | Wind** | Luminosity | Snow |
|---|---|---|---|---|---|---|---|
| 1778019019 | 18.33° C | 40% | 1010 hPa | 0 mm | 1.34 m/s, 135° | - | - |
| 1778018417 | 18.33° C | 39% | 1010.3 hPa | 0 mm | 1.34 m/s, 135° | - | - |
| 1778017817 | 18.89° C | 39% | 1010.4 hPa | 0 mm | 0.89 m/s, 135° | - | - |
| 1778017219 | 18.33° C | 39% | 1010.8 hPa | 0 mm | 1.34 m/s, 135° | - | - |
| 1778016619 | 18.33° C | 39% | 1011.4 hPa | 0 mm | 0.89 m/s, 135° | - | - |
| 1778016019 | 18.33° C | 39% | 1011.3 hPa | 0 mm | 1.34 m/s, 113° | - | - |
| 1778015419 | 18.33° C | 39% | 1011.6 hPa | 0 mm | 0.45 m/s, 113° | - | - |
| 1778014818 | 18.89° C | 38% | 1011.8 hPa | 0 mm | 1.34 m/s, 113° | - | - |
| 1778014219 | 18.89° C | 38% | 1011.8 hPa | 0 mm | 0.89 m/s, 90° | - | - |
| 1778013619 | 18.89° C | 38% | 1012.2 hPa | 0 mm | 0.45 m/s, 135° | - | - |
| 1778013019 | 20° C | 37% | 1012.5 hPa | 0 mm | 0.89 m/s, 135° | - | - |
| 1778012418 | 19.44° C | 38% | 1012.3 hPa | 0 mm | 0.45 m/s, 113° | - | - |
| 1778011818 | 18.89° C | 38% | 1012.5 hPa | 0 mm | 1.34 m/s, 68° | - | - |
| 1778011221 | 19.44° C | 37% | 1012.2 hPa | 0 mm | 0.89 m/s, 45° | - | - |
| 1778010619 | 19.44° C | 37% | 1012.1 hPa | 0 mm | 0.89 m/s, 135° | - | - |
| 1778010018 | 20° C | 36% | 1012.2 hPa | 0 mm | 0.89 m/s, 113° | - | - |
| 1778009418 | 20.56° C | 35% | 1012.5 hPa | 0 mm | 0.89 m/s, 45° | - | - |
| 1778008819 | 21.11° C | 34% | 1012.7 hPa | 0 mm | 0.89 m/s, 45° | - | - |
| 1778008219 | 21.11° C | 34% | 1012.7 hPa | 0 mm | 0.89 m/s, 90° | - | - |
| 1778007618 | 21.11° C | 35% | 1012.8 hPa | 0 mm | 1.34 m/s, 23° | - | - |
| 1778007018 | 21.11° C | 35% | 1012.7 hPa | 0 mm | 1.34 m/s, 68° | - | - |
| 1778006418 | 20.56° C | 34% | 1012.6 hPa | 0 mm | 2.24 m/s, 45° | - | - |
| 1778005837 | 20.56° C | 34% | 1012.5 hPa | 0 mm | 2.68 m/s, 23° | - | - |
| 1778005218 | 20.56° C | 35% | 1012.6 hPa | 0 mm | 2.24 m/s, 45° | - | - |
| 1778004618 | 20° C | 37% | 1012.9 hPa | 0 mm | 1.79 m/s, 45° | - | - |
* Rain latest hour (hover to see other rain measurements)
** Current wind speed in m/s (hover to see current wind gust speed)